Overview Statistics Trail Chart Weather Telemetry Raw packets
 

This is the latest recevied weather packets stored in our database for station/object HA2SKA-1. If no packets are shown the sender has not sent any weather packets the latest 10 day(s).

<< 30 31 32 33 34 35 36 >>
Time Temp. Humidity Pressure Rain* Wind** Luminosity Snow
1787943003 32.22° C 59% 1013.9 hPa - - - -
1787942103 31.67° C 60% 1014 hPa - - - -
1787941203 32.22° C 58% 1013.9 hPa - - - -
1787940303 32.22° C 59% 1013.6 hPa - - - -
1787939403 32.78° C 58% 1013.4 hPa - - - -
1787938503 32.78° C 58% 1013.5 hPa - - - -
1787937603 33.33° C 56% 1013.5 hPa - - - -
1787936703 33.33° C 55% 1013.7 hPa - - - -
1787935803 34.44° C 53% 1013.8 hPa - - - -
1787934902 34.44° C 53% 1013.9 hPa - - - -
1787934002 34.44° C 52% 1014 hPa - - - -
1787933102 35° C 52% 1014.1 hPa - - - -
1787932202 34.44° C 52% 1014.2 hPa - - - -
1787931302 34.44° C 52% 1014.3 hPa - - - -
1787930402 35° C 51% 1014.4 hPa - - - -
1787929502 35.56° C 49% 1014.5 hPa - - - -
1787928602 35.56° C 45% 1014.7 hPa - - - -
1787926815 35.56° C 43% 1014.7 hPa - - - -
1787925914 35.56° C 42% 1014.7 hPa - - - -
1787925012 35.56° C 42% 1014.9 hPa - - - -
1787924112 35.56° C 43% 1015 hPa - - - -
1787923212 35° C 43% 1015.5 hPa - - - -
1787922312 35° C 43% 1015.7 hPa - - - -
1787921412 35° C 43% 1016 hPa - - - -
1787920512 35° C 44% 1016 hPa - - - -

* Rain since midnight (hover to see other rain measurements)
** Current wind speed in m/s (hover to see current wind gust speed)